Theta_e
304 305 304 303 304 304 304 304 305 305 306 305 305 306 306 307 310 313 314 312 308 305 306 305 305 306 304 304 304 303 305 306 306 307 307 306 307 308 308 309 309 309 310 312 314 318 320 323 325 325 324 323 323 322 321 321 321 321 322 322 323 324 325 326 327 328 329 329 329 329 330 329 326 325
304 306 305 303 304 305 306 306 306 306 306 306 306 306 307 307 308 309 311 312 309 306 306 305 305 305 304 304 304 303 305 306 306 306 306 307 306 307 307 307 308 308 308 309 310 311 314 316 319 320 320 319 318 316 314 314 314 316 317 319 321 322 322 323 324 326 327 328 328 328 329 328 327 326
304 304 305 303 303 304 305 306 306 305 305 305 305 306 306 307 307 307 307 309 308 305 305 305 304 304 303 303 303 303 304 305 305 305 306 306 306 306 307 307 307 308 308 308 308 309 309 310 310 312 312 311 311 311 310 311 311 311 312 315 318 321 321 321 322 323 324 325 327 327 327 327 327 326
305 304 305 305 305 304 304 304 305 305 304 305 305 305 306 306 306 306 306 307 307 305 304 304 303 303 302 301 301 301 302 303 304 304 305 306 306 306 307 307 307 307 307 308 308 308 308 309 309 309 309 310 310 310 310 310 310 311 311 312 314 317 319 320 320 320 320 321 322 323 324 326 326 326
306 305 305 306 306 305 304 303 303 304 304 305 305 305 305 305 305 305 304 305 304 304 303 303 302 301 299 298 298 298 299 300 301 302 303 304 305 305 306 306 307 307 307 307 308 308 308 309 309 309 309 309 310 310 311 310 310 311 311 312 312 313 316 319 321 321 320 318 318 319 321 323 325 326
308 307 306 305 305 305 305 305 304 304 304 305 305 305 305 305 304 304 303 303 303 302 302 301 299 298 296 296 296 297 297 297 298 299 300 301 302 303 304 304 305 307 308 307 307 307 307 307 308 307 308 308 308 309 310 311 311 311 310 311 312 312 313 315 318 321 321 319 318 318 318 321 323 324
309 308 308 306 305 305 305 305 305 305 304 305 305 305 305 305 304 304 303 302 301 300 299 297 296 295 295 296 296 297 297 297 297 298 298 299 300 301 301 301 303 305 306 306 306 306 306 306 306 306 306 306 306 306 307 309 311 312 312 311 311 311 312 313 316 320 322 321 320 319 319 319 321 323
309 309 309 308 307 306 306 306 306 306 305 304 305 305 305 305 304 303 302 300 298 297 296 295 295 295 296 296 296 296 296 297 297 298 298 298 298 298 299 299 299 300 301 303 304 304 305 305 305 306 306 305 305 304 305 306 308 310 312 313 312 312 312 313 315 318 320 321 321 320 319 319 319 321
310 309 309 308 308 307 306 306 306 306 306 305 305 305 305 305 304 302 300 298 296 294 294 295 295 296 296 295 295 295 295 296 297 297 297 298 298 297 298 298 298 298 299 299 300 301 302 303 303 304 305 304 304 304 303 304 305 306 309 312 314 314 313 313 314 316 318 319 320 320 318 317 318 319
311 310 309 309 309 308 307 307 307 306 306 306 305 305 305 304 304 302 299 297 296 295 295 296 296 296 295 295 295 295 295 296 297 297 297 297 297 297 297 297 297 297 298 298 298 299 299 300 301 302 302 302 302 302 302 302 303 304 305 308 311 313 315 314 314 316 318 320 320 319 318 317 316 318
312 312 311 310 309 308 308 308 307 306 306 306 305 305 304 304 303 301 300 298 297 296 296 296 296 295 295 295 295 295 295 296 297 297 297 297 297 296 296 296 296 296 297 297 297 297 297 298 298 299 300 300 300 300 300 301 302 303 303 305 306 309 313 315 316 316 318 320 321 320 317 317 317 317
312 312 312 311 309 309 308 308 307 307 306 306 305 305 304 304 303 301 300 299 298 297 297 296 296 296 296 295 295 295 295 296 297 297 297 297 297 296 296 296 296 296 295 295 296 296 296 296 297 297 297 298 298 298 299 299 300 301 302 303 303 304 307 312 316 317 318 320 322 320 318 317 317 317
313 312 312 312 311 309 309 308 308 307 306 306 305 304 304 303 302 301 300 300 299 298 297 296 296 296 296 296 295 295 295 296 297 297 297 297 296 296 296 295 296 296 295 295 295 295 295 295 296 296 297 297 297 298 298 299 299 300 301 302 302 302 303 306 312 316 317 319 320 320 319 318 318 318
314 313 313 312 311 310 309 308 308 307 306 306 305 304 303 302 302 302 301 300 299 298 298 297 297 296 296 296 296 295 296 296 296 296 296 296 296 296 296 295 295 295 295 295 295 294 294 295 295 296 297 297 297 297 298 299 299 300 300 301 301 302 302 303 306 311 314 316 318 318 318 318 318 318
316 315 314 313 312 310 309 308 308 307 306 305 304 303 302 302 302 302 301 300 299 299 298 297 297 296 296 296 296 296 296 296 296 296 296 296 296 295 295 295 295 295 295 294 294 294 294 294 295 296 297 297 297 296 297 298 299 299 300 300 300 301 301 302 304 307 309 312 316 317 317 318 317 317
317 316 314 313 311 310 309 308 307 305 305 304 303 303 302 302 302 302 301 300 299 299 298 298 297 297 296 296 296 296 296 296 296 296 296 295 295 294 294 294 294 295 294 294 294 294 294 294 295 296 297 296 296 296 296 297 298 298 299 299 299 300 301 302 304 306 307 308 311 313 314 315 316 317
317 316 314 312 310 308 308 307 305 305 305 304 303 302 302 301 301 301 300 300 300 299 298 298 297 297 296 296 296 296 296 296 296 295 295 294 294 293 293 293 293 294 294 293 293 294 293 294 295 296 296 295 295 297 297 297 298 298 299 299 300 300 301 303 305 308 308 307 308 309 311 312 314 315
315 315 313 312 309 307 306 305 305 306 306 304 303 302 301 301 301 301 300 300 299 299 298 298 297 297 296 296 296 296 295 295 294 294 293 293 293 292 292 292 292 292 293 292 293 293 293 293 294 295 294 294 296 298 298 299 299 299 301 301 301 302 303 304 306 307 307 307 307 308 309 310 311 312
313 312 312 311 308 306 305 305 305 305 305 303 302 302 301 301 301 301 300 300 299 299 299 298 297 296 296 295 295 295 294 294 293 293 292 292 292 292 291 292 292 292 292 291 292 292 292 292 293 293 293 295 297 297 297 300 301 302 303 304 303 304 304 305 306 306 307 307 307 308 308 309 309 310
311 311 311 310 307 306 305 305 304 304 304 303 302 301 301 301 301 301 300 300 299 299 298 297 297 296 296 295 295 294 293 293 292 292 292 292 291 291 291 291 291 291 291 291 291 292 292 293 293 294 294 295 296 295 296 300 303 304 304 304 303 304 304 304 304 305 305 306 306 306 307 307 308 308
310 310 310 309 307 306 305 305 304 304 304 303 301 301 301 301 301 300 299 298 298 297 297 296 296 295 294 294 293 293 292 292 292 292 291 292 291 291 290 290 291 291 291 291 292 292 292 293 293 294 294 294 294 295 295 299 303 303 302 302 302 302 303 302 303 303 302 303 303 304 304 304 305 305
306 306 306 305 305 305 305 304 303 303 303 302 302 301 301 300 299 298 298 297 296 296 295 295 294 294 293 293 292 292 292 292 292 292 291 291 291 291 290 290 290 291 291 292 292 292 292 292 292 293 294 294 294 295 296 298 301 302 301 301 300 300 301 301 301 301 301 300 301 301 302 302 302 303
304 303 303 303 303 303 302 302 301 301 301 301 300 300 299 299 298 297 297 296 296 295 294 294 293 293 293 292 292 292 292 292 292 292 291 291 291 291 291 291 290 290 291 291 292 292 292 292 292 293 293 294 294 294 295 296 298 298 298 299 298 298 299 300 300 300 299 299 299 300 300 300 301 301
303 302 302 301 301 301 301 300 300 300 300 299 299 298 298 297 296 296 295 295 294 294 293 293 292 292 292 292 292 291 291 291 291 291 292 292 292 291 291 291 291 290 291 291 291 291 292 292 292 293 293 293 293 294 294 294 295 295 296 297 297 297 297 298 299 299 298 298 298 298 298 299 299 299
302 301 301 300 299 299 299 299 298 298 298 297 297 296 296 295 295 294 294 293 293 292 292 292 292 291 291 291 291 291 290 290 290 291 291 291 291 291 291 291 291 290 291 291 292 292 292 292 292 292 292 292 293 293 293 294 294 295 295 295 296 296 296 297 299 299 298 297 297 297 298 298 297 298
300 299 299 298 297 297 297 297 297 297 296 296 295 294 294 293 293 293 293 292 292 292 291 291 291 291 291 291 291 290 290 290 290 290 291 291 291 291 291 291 291 291 291 291 292 292 292 292 292 292 292 292 293 293 293 294 294 294 295 295 295 295 295 297 299 299 298 297 297 297 297 297 297 298
298 297 297 296 296 296 296 296 296 295 295 294 293 293 293 293 293 292 292 292 291 291 291 290 290 290 291 291 290 290 290 290 290 290 290 290 291 291 291 291 291 291 291 291 292 292 292 292 292 292 292 292 292 292 293 293 294 294 294 294 294 295 295 297 299 299 298 298 297 297 297 298 298 298
297 296 296 296 296 296 296 295 295 294 293 293 293 292 292 292 292 292 291 291 291 291 291 291 291 290 290 290 289 289 289 289 289 289 289 290 290 290 290 291 291 291 291 291 291 291 292 292 292 292 292 293 293 293 293 293 293 294 294 294 295 295 296 297 298 298 298 298 298 297 297 298 297 297
295 296 295 295 295 295 294 294 293 293 293 293 292 292 292 291 291 291 291 291 291 291 290 290 290 289 289 289 288 288 288 288 288 288 288 289 289 289 290 290 290 291 291 291 291 291 291 291 292 292 292 293 293 293 293 294 294 294 294 295 295 295 296 296 297 297 297 298 298 297 297 297 297 297
295 295 295 294 294 293 293 293 292 292 292 292 291 291 291 291 291 290 290 290 290 290 290 289 289 288 288 288 288 288 287 288 288 288 288 289 289 289 290 290 290 290 290 290 291 291 291 290 291 291 292 292 293 293 294 294 294 294 295 295 295 295 296 296 296 297 297 298 298 298 298 298 297 297
295 294 293 293 292 292 292 292 292 291 291 291 291 291 290 290 290 290 290 290 290 289 289 288 288 288 287 287 287 287 287 287 287 288 288 288 289 289 289 289 289 289 290 290 290 290 290 290 290 290 291 292 292 293 293 294 294 295 295 295 295 295 296 296 297 297 297 297 298 298 298 298 297 297
294 293 292 292 292 292 292 291 291 291 290 290 290 290 290 290 290 290 290 290 289 289 288 287 287 287 287 287 287 287 287 286 287 287 288 288 288 289 289 289 289 289 289 289 290 290 290 290 290 290 291 291 292 292 293 293 294 294 295 295 295 296 296 296 296 296 296 296 297 297 298 298 297 297
292 292 292 292 292 291 291 291 290 290 290 290 290 290 290 290 289 289 289 288 288 287 287 287 287 286 286 286 286 286 286 287 287 287 287 288 288 288 288 288 289 289 289 289 289 289 289 289 289 290 290 291 291 292 292 293 293 294 294 294 295 295 296 296 296 295 295 295 296 296 297 297 297 297
292 292 292 291 291 291 290 290 290 290 290 290 290 289 289 289 288 288 287 287 287 287 287 286 286 286 286 286 286 286 287 287 287 287 287 287 288 288 288 288 289 289 289 289 289 289 289 289 289 290 290 290 291 291 292 293 293 293 293 293 294 295 295 295 294 294 294 295 296 296 297 297 297 297
292 291 291 291 290 290 290 290 290 290 289 289 289 288 288 287 287 287 287 287 287 286 286 286 286 286 286 286 286 287 287 287 287 287 287 288 288 288 288 288 289 289 289 289 289 289 289 289 290 290 290 290 291 291 291 292 293 293 293 293 294 294 294 294 294 294 294 295 296 296 296 297 297 297
291 291 291 290 290 290 290 290 289 289 289 288 288 287 287 287 287 287 287 287 287 287 286 286 286 286 286 287 287 287 287 287 287 287 287 287 288 288 288 288 288 289 289 289 289 289 289 289 290 290 290 291 291 291 291 292 292 293 293 293 294 294 294 294 295 295 295 295 296 296 296 296 297 296
291 291 290 290 290 290 289 289 289 289 288 287 287 287 287 287 287 287 287 287 287 287 287 286 286 287 287 287 287 287 287 287 287 287 287 287 287 288 288 288 288 288 288 289 289 289 289 289 289 290 290 290 290 291 291 292 292 293 293 293 294 294 295 295 295 295 295 295 295 296 296 296 296 296
291 290 290 290 290 289 289 289 288 288 287 287 287 287 287 288 288 288 288 287 287 287 287 287 287 287 287 287 287 287 287 287 287 287 287 287 287 287 288 288 288 288 288 288 288 289 289 289 289 290 290 290 290 290 291 292 292 293 294 294 295 295 295 295 294 295 295 295 295 295 295 295 295 295
290 290 290 290 289 289 289 288 288 287 287 287 288 288 288 288 288 288 288 287 287 287 287 287 287 287 287 287 287 287 287 287 287 287 287 287 287 287 287 288 288 288 288 288 288 288 289 289 289 289 290 290 290 290 291 291 292 292 293 294 294 294 294 294 295 295 295 295 294 294 294 294 294 294
290 290 289 289 289 289 288 287 287 287 287 288 289 289 289 289 288 288 287 286 286 286 286 287 287 287 287 287 287 287 287 287 287 287 287 287 287 287 287 287 287 288 288 288 288 288 288 289 289 289 289 290 290 290 290 291 291 292 292 292 293 293 293 294 294 295 295 295 294 293 292 292 292 292
290 289 289 289 288 288 287 287 287 288 288 289 289 289 289 288 287 286 286 286 286 286 286 286 287 287 287 287 287 287 287 287 287 287 287 287 287 287 287 287 287 288 288 288 288 288 289 289 289 289 289 289 290 290 290 291 291 292 292 292 292 293 293 293 294 295 295 295 293 292 291 291 291 290
290 289 289 289 288 287 287 288 288 289 289 289 289 289 288 287 286 285 285 285 285 286 286 286 287 287 287 287 287 287 287 287 287 287 287 287 287 287 287 287 288 288 288 288 288 288 289 289 289 289 289 290 290 290 290 291 291 292 292 292 292 292 293 294 294 295 295 294 293 292 290 290 290 289
289 289 289 288 287 287 288 289 289 289 289 289 289 289 287 286 284 284 284 285 285 286 286 286 287 287 287 287 287 287 287 287 287 287 287 287 287 287 287 288 288 288 288 288 288 288 289 289 289 289 289 290 290 290 290 291 291 291 291 292 292 293 293 293 294 294 293 293 293 293 292 291 291 290
289 289 289 288 287 288 289 289 289 289 289 289 289 288 286 284 284 284 284 285 285 286 286 287 287 287 287 287 287 287 287 287 287 287 287 288 288 288 288 288 288 288 288 288 288 289 289 289 289 289 289 290 290 290 290 291 291 291 291 292 292 292 292 292 292 292 291 291 291 292 292 292 292 292
289 289 288 288 288 289 289 289 289 289 289 289 288 287 285 284 284 284 285 285 286 286 287 288 288 287 287 287 287 287 287 287 288 288 288 288 288 288 288 288 288 288 289 289 289 289 289 289 289 289 290 290 290 290 290 290 291 291 291 291 291 291 291 291 291 290 290 290 290 291 291 291 292 292
Wind_Speed
9 9 9 9 11 11 11 11 11 10 10 10 9 10 10 8 5 2 4 4 2 10 17 14 17 23 24 23 23 21 21 19 18 17 16 16 15 14 14 13 13 13 12 11 10 9 9 8 7 6 7 7 9 10 11 12 13 13 14 14 14 15 15 16 18 21 23 26 27 28 31 33 32 31
7 8 9 9 9 9 10 10 9 9 8 9 9 8 8 9 6 4 2 2 3 9 15 15 17 22 23 23 23 21 20 20 20 18 17 16 15 15 13 13 14 14 14 13 12 11 10 10 9 8 9 9 10 10 11 13 13 13 14 14 15 15 15 16 16 18 19 22 25 27 31 33 32 31
5 6 7 8 8 8 7 6 6 7 8 7 8 7 7 7 7 5 3 1 4 9 13 15 18 20 22 22 22 21 20 20 20 20 19 18 16 15 14 14 15 14 14 14 12 12 11 10 10 9 10 10 11 11 12 13 14 14 14 14 14 15 14 14 14 15 16 18 19 20 23 28 29 29
4 4 6 6 7 7 6 5 5 6 7 7 8 8 7 7 8 8 5 1 6 10 12 15 19 20 21 22 22 22 21 19 19 20 20 19 18 17 17 16 16 15 14 14 13 12 12 12 11 11 11 11 11 12 13 14 15 15 14 14 14 14 15 14 13 13 12 13 14 14 15 18 21 24
4 3 4 4 4 5 5 5 5 4 5 6 7 7 7 7 8 9 9 6 8 12 14 17 19 21 22 22 22 23 22 21 20 19 18 19 19 18 18 18 18 17 15 14 13 12 12 13 13 13 13 13 13 13 13 14 15 16 15 15 14 14 15 15 15 13 12 11 12 12 12 13 15 17
4 3 3 2 2 2 2 2 4 4 3 4 5 6 6 6 7 9 11 11 9 13 18 19 20 22 22 22 22 23 22 22 21 19 19 19 18 18 18 18 19 18 16 15 14 14 14 14 14 15 15 16 17 17 15 14 13 14 16 16 16 16 16 16 16 15 14 13 12 12 12 13 14 15
6 6 4 3 3 2 2 1 1 2 2 2 3 4 4 5 7 8 11 12 11 13 18 20 21 22 22 21 21 22 21 20 21 21 20 19 19 18 19 18 18 17 16 16 16 16 16 15 15 15 15 16 18 19 20 18 16 14 13 15 16 17 17 17 16 16 15 15 14 13 13 13 14 14
8 7 7 6 5 4 4 4 3 2 2 1 1 2 3 4 6 8 9 12 12 13 16 18 19 20 20 19 21 23 23 21 21 21 21 20 20 20 20 19 19 19 18 17 17 18 17 17 16 16 16 17 18 19 21 21 19 17 15 13 14 15 15 15 13 13 14 14 13 13 13 14 14 14
9 9 9 8 8 7 6 6 5 4 4 3 2 2 3 3 5 7 8 11 12 13 15 17 17 18 19 20 21 24 25 24 23 22 22 22 23 23 22 22 22 22 21 20 20 20 20 20 19 19 19 19 20 20 21 21 21 19 17 16 14 14 13 13 12 12 12 12 12 11 12 13 14 14
11 11 11 10 10 11 9 8 8 7 6 5 4 3 4 4 5 7 9 11 12 12 13 14 16 19 20 22 23 25 26 25 24 27 27 26 26 27 27 26 25 24 23 23 23 23 23 23 23 22 21 21 22 22 21 21 22 21 19 18 17 16 13 13 15 15 14 14 12 10 10 11 12 13
14 13 12 13 13 13 12 11 11 10 9 7 6 5 5 6 7 8 10 11 11 12 12 13 16 18 19 21 23 24 25 24 24 28 31 31 31 31 30 30 28 25 25 26 26 26 26 25 24 24 24 23 24 24 23 22 22 22 21 19 18 18 16 13 14 16 17 17 15 12 10 9 11 12
19 17 15 16 16 15 15 14 13 12 11 9 8 7 6 7 7 8 10 11 10 10 10 12 14 17 19 21 23 25 27 26 25 26 26 28 31 32 32 30 26 26 29 30 31 31 30 29 28 26 26 26 25 25 24 23 23 23 22 21 20 20 19 17 13 12 15 16 16 14 11 9 10 11
23 21 20 19 19 18 17 16 16 14 13 11 9 8 7 7 7 8 8 9 8 7 9 11 13 16 18 20 21 24 24 22 22 24 24 25 27 31 33 29 23 24 30 34 36 35 35 34 32 29 28 28 27 26 24 23 23 23 23 23 22 21 20 19 16 13 11 12 14 15 13 10 10 11
24 24 24 23 22 20 19 18 17 16 14 12 10 8 8 8 7 7 7 6 5 5 7 8 10 13 15 16 17 18 19 19 21 23 24 25 26 28 31 29 24 25 30 34 37 37 35 33 32 30 28 28 27 26 24 24 24 24 23 23 22 22 21 19 17 15 13 10 9 11 12 11 10 11
24 25 26 26 24 22 20 20 18 17 15 12 9 9 9 9 8 7 6 5 4 4 5 7 8 9 11 14 14 15 17 19 21 22 22 23 25 24 22 21 25 29 31 33 34 36 34 30 28 28 27 27 28 28 25 24 24 24 23 22 21 21 21 19 17 16 14 12 9 8 9 9 9 10
23 23 25 27 25 23 21 21 19 16 13 10 9 9 9 9 9 8 7 6 5 5 6 7 8 9 10 12 12 13 16 18 20 21 20 20 21 22 19 18 24 31 33 32 32 34 32 27 25 25 25 27 30 29 25 23 23 23 23 22 21 20 19 18 16 14 13 12 11 9 8 7 7 8
21 22 23 24 23 22 21 20 19 17 12 10 10 10 10 9 8 8 7 6 6 7 7 8 10 10 9 10 11 11 13 15 17 19 20 21 21 22 22 23 28 33 32 29 29 32 31 26 23 24 27 29 28 24 20 20 21 21 21 20 20 18 16 16 14 13 12 11 11 10 9 9 8 8
17 19 21 20 20 21 20 19 18 15 13 11 11 11 10 9 8 8 8 8 8 8 9 10 11 10 9 9 10 11 11 13 15 18 20 22 23 25 26 27 31 33 28 23 22 27 29 27 23 25 29 28 23 18 18 18 18 17 17 16 16 15 13 12 11 11 10 10 10 10 9 10 10 11
12 14 17 18 17 18 18 17 14 12 10 10 12 11 11 10 9 9 10 10 10 10 10 11 10 10 10 9 10 11 13 15 16 18 20 22 24 26 27 28 30 28 23 19 17 21 26 27 26 26 26 22 17 16 18 18 15 12 11 12 12 11 10 9 8 8 8 8 9 9 10 11 12 12
8 10 14 15 14 15 16 14 12 9 9 10 13 13 11 11 11 11 11 11 11 10 10 9 9 9 10 12 13 15 16 18 18 19 20 21 22 22 22 23 23 22 21 20 18 20 23 24 23 23 21 19 20 21 19 16 11 8 8 9 8 8 7 7 7 7 7 7 8 9 10 11 12 12
5 6 9 11 12 13 13 12 11 11 11 12 13 12 11 11 10 9 8 8 8 8 8 8 9 11 12 14 15 16 16 17 18 18 18 18 19 19 17 15 17 21 23 20 16 17 19 18 20 22 22 21 22 19 16 12 8 5 6 7 8 9 8 7 7 7 7 8 8 8 9 9 10 10
2 4 6 8 9 10 10 10 9 9 10 10 11 10 10 9 8 7 7 7 7 8 9 10 11 12 13 14 15 16 16 16 15 16 16 16 17 18 17 15 18 22 18 13 13 16 18 19 21 23 23 21 17 13 11 11 9 6 7 8 11 13 12 10 10 11 10 10 10 10 11 12 12 13
5 5 6 6 6 7 7 7 7 6 6 7 7 7 8 7 7 8 9 10 12 12 13 14 14 15 15 15 16 16 16 16 15 15 15 16 17 20 21 20 18 14 9 11 17 20 20 20 19 19 17 14 11 9 10 12 14 15 15 14 16 17 15 14 14 14 13 14 14 13 14 14 15 15
5 4 4 4 4 5 5 4 4 3 3 4 4 5 5 5 6 8 10 11 12 13 14 15 15 15 15 16 16 16 16 16 16 15 16 16 18 21 24 24 19 14 14 20 23 22 21 20 18 18 17 13 11 14 17 18 18 19 18 18 19 19 18 18 18 16 15 17 17 16 16 17 17 17
4 5 4 4 4 3 3 2 1 1 1 2 3 4 5 6 7 8 9 10 11 12 13 13 14 15 16 16 17 17 18 18 17 16 16 17 18 21 23 25 24 22 23 24 24 23 23 22 20 20 20 18 18 20 22 21 20 19 19 19 20 20 21 21 20 16 16 17 17 17 17 19 19 18
4 5 5 5 5 3 2 1 0 1 3 4 5 5 5 6 7 8 9 10 11 12 13 14 16 16 17 18 19 19 19 19 18 18 18 18 19 21 23 24 26 27 27 25 24 25 26 24 22 21 19 18 20 21 20 20 20 19 18 19 20 20 21 21 19 15 16 16 16 17 18 18 17 15
5 6 6 5 4 2 0 2 3 5 6 6 6 5 5 6 7 8 9 10 11 13 14 16 17 18 18 20 21 22 22 22 22 22 22 22 22 23 24 25 26 27 28 26 24 24 26 27 25 23 21 21 20 18 18 19 19 20 20 20 21 21 20 20 19 17 17 15 14 15 15 14 13 14
6 6 5 3 1 2 3 4 5 6 6 5 4 4 4 5 6 7 9 10 12 14 15 16 18 19 20 21 23 24 24 25 25 25 26 26 25 25 26 26 26 26 26 25 24 24 26 27 26 25 25 24 21 18 17 18 20 21 22 22 21 20 19 18 19 20 18 15 15 15 13 12 14 16
5 4 3 2 2 3 3 3 4 4 4 4 3 2 3 5 6 8 10 12 13 15 16 17 19 20 21 23 24 25 26 26 26 26 27 27 27 26 27 27 26 26 25 25 24 24 25 27 27 26 26 25 24 22 21 20 21 22 22 22 22 21 20 20 20 20 18 18 18 16 13 13 15 16
4 3 1 0 1 2 3 4 5 5 5 5 4 4 5 7 9 11 12 13 14 16 17 19 20 22 24 25 26 27 27 26 26 26 26 27 26 26 26 27 27 26 25 24 24 24 25 26 27 28 27 26 26 26 24 23 22 21 22 23 22 20 19 18 18 18 18 19 19 17 15 14 16 16
3 3 3 4 5 5 6 6 5 5 5 5 6 7 8 10 11 13 14 15 16 18 20 21 23 24 25 26 27 27 26 26 25 24 25 26 26 26 26 26 26 25 25 24 24 24 25 26 27 27 27 27 26 26 25 24 23 22 21 22 22 21 19 17 16 16 16 17 19 18 17 16 16 16
5 6 7 7 6 5 4 5 6 6 6 7 8 9 10 11 13 14 15 17 19 20 22 23 25 26 26 26 26 25 24 24 24 23 23 24 26 25 25 24 23 23 24 24 25 25 26 26 26 26 27 27 27 26 26 26 25 23 22 22 23 24 23 20 18 17 16 17 19 20 20 18 18 17
8 9 8 6 4 4 6 7 7 8 8 9 10 12 13 14 15 16 17 19 20 21 23 24 25 25 25 25 24 23 23 24 24 23 22 23 24 24 23 23 22 23 23 24 25 26 27 26 25 25 25 25 26 27 27 26 24 22 22 22 22 22 22 21 20 19 19 19 20 21 21 20 19 17
8 8 7 6 6 6 7 8 8 9 10 12 13 15 16 16 16 17 18 19 21 22 23 23 23 23 23 23 23 23 23 24 25 24 23 23 23 23 23 23 23 23 23 23 24 25 25 25 24 23 23 24 25 26 26 25 24 24 25 24 22 22 22 23 23 23 23 21 21 22 22 21 20 17
8 7 7 7 7 6 7 7 8 9 11 13 15 16 16 17 17 19 21 22 23 24 24 24 23 23 23 23 23 24 24 25 25 25 24 23 23 22 23 23 22 23 23 22 22 23 22 22 22 21 21 21 20 21 23 24 24 25 25 23 22 22 24 25 24 24 22 21 21 22 21 21 19 16
8 7 7 7 6 6 6 7 8 10 12 14 15 16 17 19 20 22 23 25 26 27 26 25 24 24 24 24 25 25 25 25 25 25 24 23 23 23 23 23 23 24 23 23 23 23 22 21 21 19 16 13 10 11 15 17 16 17 21 22 21 21 23 23 22 21 20 20 20 21 20 19 18 15
8 7 6 6 6 6 6 8 9 11 12 13 14 16 18 20 22 24 26 27 28 28 26 25 25 25 26 26 26 26 26 26 25 25 24 24 23 22 22 23 23 23 23 23 23 23 21 20 20 18 15 9 6 7 10 12 12 13 16 20 21 20 20 19 18 17 17 16 17 19 19 18 16 13
7 5 5 5 5 6 7 9 10 11 12 13 14 17 20 22 24 26 27 28 28 28 27 27 27 27 28 28 27 27 27 26 25 24 24 24 23 22 22 22 22 23 23 23 23 22 22 21 20 20 16 10 6 6 7 8 10 11 12 15 18 18 17 16 16 15 14 13 14 16 16 16 14 11
5 5 5 5 5 6 8 8 9 10 11 13 16 19 22 25 26 28 29 29 29 29 29 29 29 29 29 29 27 26 26 25 24 24 24 23 23 22 22 22 22 22 22 22 22 21 21 21 21 21 20 16 13 13 12 13 15 16 15 14 16 17 16 17 17 16 13 11 11 11 11 11 10 8
4 4 4 4 5 6 7 7 8 10 12 15 18 21 23 25 27 28 29 29 29 29 28 28 29 29 29 28 27 25 25 25 24 24 24 23 23 23 23 23 23 22 21 21 21 20 21 22 22 22 23 22 22 23 23 21 21 22 22 20 18 17 17 16 16 15 12 10 10 10 10 11 10 10
4 4 4 5 5 5 6 7 9 11 14 17 19 21 22 24 26 27 27 27 27 27 27 27 28 28 28 27 26 25 24 24 24 24 24 24 24 24 23 23 23 22 21 20 20 21 23 24 23 22 21 22 23 22 18 14 13 16 19 18 16 15 14 14 15 15 14 12 11 12 12 11 12 12
4 4 4 4 4 5 6 8 10 13 16 18 19 21 23 25 26 26 26 26 26 25 25 26 27 27 27 27 27 25 24 25 25 24 24 24 23 24 23 22 21 21 20 20 22 25 26 25 23 21 19 19 20 17 12 8 9 12 15 15 13 12 12 12 13 14 13 12 11 12 11 10 9 9
4 4 4 4 4 5 6 8 11 14 16 17 19 22 24 26 26 26 26 25 25 24 25 26 27 27 27 27 27 26 25 25 25 25 25 24 23 23 23 22 22 22 22 23 25 26 26 24 22 20 18 18 19 17 13 12 13 14 14 12 11 9 9 10 9 8 8 9 11 13 12 10 7 5
4 3 3 4 4 5 6 9 13 15 16 17 20 23 25 25 26 26 25 24 24 24 24 26 27 27 28 28 27 26 26 25 25 25 25 24 24 23 23 24 24 23 23 23 23 23 22 20 19 17 16 17 18 17 15 15 15 14 13 11 8 7 6 5 4 6 8 10 11 11 12 11 6 2
3 2 3 3 3 4 7 10 13 14 15 18 21 23 24 24 25 26 25 23 23 23 24 26 27 28 29 28 27 27 26 26 26 25 24 24 24 23 23 23 23 22 22 21 19 19 18 16 14 13 14 16 16 16 17 16 15 12 10 9 9 10 9 9 11 12 11 9 7 5 7 9 5 3
Wind_Direction
110 97 84 85 90 87 86 87 82 78 69 63 62 53 58 70 72 57 0 337 311 2 8 8 4 8 12 12 14 18 21 21 22 25 27 24 19 16 13 7 2 358 352 348 341 333 326 319 310 301 302 309 312 312 309 308 306 303 303 300 296 292 289 284 279 278 272 265 263 255 249 245 237 235
107 100 91 85 90 93 93 91 83 73 61 54 54 51 47 49 64 90 39 329 305 345 358 5 4 3 8 12 13 15 17 18 19 21 22 25 23 20 21 19 15 10 3 358 352 345 339 334 329 320 315 313 312 314 312 310 308 305 303 299 295 291 288 287 284 284 281 277 277 272 261 253 242 237
99 101 98 87 84 91 89 87 77 55 45 41 39 41 36 31 36 48 60 11 325 339 348 358 3 3 5 10 11 11 14 14 16 18 18 20 19 20 24 23 19 18 15 11 7 2 356 350 345 337 329 322 317 315 311 309 309 308 306 300 295 291 289 289 287 287 288 286 286 285 275 266 255 247
105 105 107 95 79 76 70 64 59 41 38 42 41 39 36 30 25 24 35 348 315 337 349 354 0 2 3 7 8 8 10 11 11 14 16 18 19 23 27 25 22 21 20 19 15 11 8 4 1 355 346 336 326 317 308 302 301 303 306 303 296 291 288 287 285 285 289 292 292 294 290 279 269 261
136 128 123 114 88 77 68 50 43 37 38 42 41 39 33 29 25 18 19 4 328 337 351 354 358 359 360 4 6 5 6 7 7 7 9 12 17 22 24 23 24 23 22 23 24 23 23 23 21 18 13 6 357 344 326 309 298 293 296 298 294 289 285 283 281 279 283 292 297 298 296 289 280 275
175 182 167 152 139 111 90 49 31 27 28 30 32 37 31 22 21 13 9 8 350 341 346 351 355 357 360 4 5 4 5 4 3 3 4 5 7 10 13 18 24 27 27 29 32 33 32 30 25 22 20 17 14 8 358 343 321 301 292 292 291 287 281 277 275 275 278 286 294 298 298 294 288 283
200 208 208 200 199 192 190 211 331 0 356 0 16 26 23 13 13 7 2 4 2 348 343 348 355 357 0 7 7 4 3 2 1 1 2 2 0 1 3 6 12 15 14 13 16 18 19 18 17 14 12 12 12 10 7 1 353 336 312 296 291 287 281 276 273 271 275 282 289 292 292 291 289 284
220 226 229 228 227 222 214 217 226 244 264 280 315 358 359 355 354 355 355 357 359 353 344 347 356 0 2 8 7 1 359 359 360 359 358 356 354 356 357 359 360 357 352 350 352 356 359 360 360 360 0 2 4 6 5 2 358 355 345 326 306 293 284 278 275 271 273 280 285 288 289 288 285 281
231 237 240 241 241 239 233 225 228 236 242 251 254 278 312 328 337 344 350 353 354 355 352 350 354 360 3 5 5 3 0 357 355 355 355 355 353 351 350 353 355 351 344 340 339 340 343 346 347 347 347 349 351 355 358 357 353 351 352 348 335 315 292 275 269 267 269 276 282 287 290 288 282 276
238 242 245 245 241 241 244 237 233 238 240 243 255 271 292 310 325 336 346 352 353 357 2 359 357 0 3 2 3 4 4 2 359 355 350 350 352 351 349 350 351 348 343 341 340 339 338 339 340 340 340 341 342 345 349 349 346 344 345 347 347 337 315 284 268 263 263 268 276 281 286 288 282 273
244 244 246 247 242 240 244 241 235 236 239 244 255 271 289 303 314 328 339 345 350 356 3 4 1 1 3 2 1 2 3 3 3 1 353 347 347 350 350 349 348 346 342 340 340 340 337 335 335 335 336 338 339 340 342 342 339 337 336 337 342 343 336 315 284 268 263 267 275 282 285 289 286 277
252 248 248 247 245 243 243 242 238 236 238 242 248 259 276 290 303 320 333 338 344 353 1 4 0 357 359 1 359 358 1 1 359 358 354 345 343 343 343 345 346 344 341 339 337 338 338 337 335 334 334 336 338 338 339 338 335 332 331 330 332 336 339 337 321 292 272 266 271 278 281 284 286 281
255 252 251 250 248 245 242 241 240 237 239 243 244 250 260 270 289 310 324 330 333 342 352 357 355 351 353 358 357 355 359 358 349 345 345 342 340 338 336 339 344 343 341 339 336 337 340 339 338 337 336 336 338 339 340 339 335 331 329 325 325 327 330 333 335 330 307 278 265 266 269 271 275 277
257 255 254 254 250 245 240 237 235 232 233 237 243 252 257 262 276 297 313 315 309 321 338 343 344 343 344 349 351 348 347 344 338 338 340 339 337 338 336 336 337 339 340 339 334 332 336 339 337 337 337 336 337 339 339 338 335 331 327 324 322 323 324 324 325 330 331 316 284 265 263 262 263 267
264 260 256 253 249 242 236 231 228 226 226 230 239 251 257 263 277 295 304 290 274 289 311 317 322 324 327 334 340 338 334 333 332 334 335 334 335 338 337 329 326 330 335 335 329 325 329 336 334 331 331 330 331 332 331 329 328 327 325 322 319 318 319 317 314 316 322 326 317 293 276 271 266 262
271 266 259 253 246 238 231 226 219 213 215 229 242 247 254 264 280 296 298 284 274 282 292 296 302 305 311 322 329 328 327 326 326 327 327 329 331 329 326 317 314 320 328 330 324 319 322 330 328 321 320 322 325 329 327 322 320 322 323 322 320 317 315 312 307 305 309 314 319 319 311 303 294 280
273 267 261 252 239 228 222 216 209 204 212 234 241 242 251 263 279 292 292 287 285 287 289 290 297 302 304 308 315 319 321 321 322 323 322 324 324 320 317 313 310 315 323 327 320 314 316 324 322 314 312 317 325 331 329 324 322 322 323 323 320 316 310 306 304 304 307 311 316 321 323 317 310 301
272 264 258 246 228 216 210 207 207 211 221 234 237 241 252 262 272 277 276 276 277 278 280 281 285 291 293 298 307 312 317 319 320 320 320 320 318 314 312 310 310 314 319 323 317 308 311 319 317 309 311 318 328 337 335 331 327 322 324 327 325 321 317 315 316 318 320 321 321 321 319 314 308 302
276 259 250 240 224 212 207 207 211 216 221 235 244 248 251 255 259 263 267 269 268 266 266 268 274 281 290 300 307 309 313 317 317 316 315 314 313 312 311 310 311 314 318 323 317 301 306 314 311 308 316 323 329 335 336 335 328 322 333 343 342 343 343 340 341 339 334 329 323 319 313 308 303 297
283 257 245 238 225 215 214 214 215 215 220 238 248 249 248 251 256 260 263 262 261 261 262 266 274 281 291 302 307 310 313 315 318 318 315 315 316 317 315 313 315 318 321 326 318 297 301 315 314 313 321 325 320 320 324 329 332 339 359 4 2 1 358 351 348 342 335 328 320 316 310 303 298 292
279 246 234 228 219 214 216 217 219 222 225 232 241 246 249 251 253 255 257 258 262 271 275 279 286 290 296 302 305 310 314 316 320 321 319 324 326 321 316 313 314 317 319 328 328 307 305 322 324 319 320 321 317 315 314 314 316 329 344 348 351 350 342 338 340 339 340 342 337 333 331 327 322 314
183 175 183 198 205 207 210 213 216 219 222 228 237 245 247 246 247 249 251 260 272 282 288 291 293 296 300 304 306 311 314 316 319 317 317 323 320 311 307 304 308 313 317 328 336 319 311 319 322 317 316 316 314 312 307 299 293 303 323 329 333 334 328 322 324 327 332 338 337 335 336 340 343 340
154 148 149 164 185 194 197 202 208 211 221 234 240 242 245 249 256 264 272 279 285 290 295 298 300 303 307 310 313 315 315 315 313 307 305 307 304 299 298 298 303 309 308 315 322 315 308 312 317 316 317 316 313 311 305 297 296 302 307 307 310 314 313 309 307 310 317 325 327 326 325 328 333 337
181 173 162 158 168 185 191 198 210 220 236 247 249 255 267 276 281 285 291 294 298 302 305 306 309 312 314 316 316 316 315 313 311 303 297 294 294 294 294 294 292 283 284 304 315 310 302 305 308 308 307 300 295 300 300 296 294 295 296 295 296 299 301 299 296 297 308 318 320 318 315 315 320 325
210 193 176 157 151 160 164 164 180 221 264 281 294 302 304 302 298 298 301 304 306 310 311 312 314 315 316 316 316 316 316 316 313 306 298 293 292 293 293 293 290 283 286 301 310 305 298 298 299 300 298 288 284 291 295 293 290 287 287 289 290 292 293 288 282 285 302 312 314 313 310 309 311 314
197 174 159 149 144 142 136 120 65 339 331 329 331 329 320 309 305 305 308 310 312 313 314 316 316 318 319 320 320 320 320 319 316 311 304 298 294 292 292 292 290 288 291 300 305 300 295 293 294 294 291 285 284 286 287 287 288 287 285 285 287 290 290 280 269 276 297 303 303 306 306 305 306 309
170 155 151 150 152 158 237 321 325 328 332 332 328 322 315 312 312 314 316 316 316 317 319 319 319 321 323 322 322 321 320 318 315 311 306 302 297 294 293 292 291 291 294 298 299 296 292 289 289 289 285 283 283 282 280 280 283 284 282 282 283 286 286 277 267 274 286 285 288 299 299 296 301 307
161 161 162 171 206 284 309 319 323 327 331 331 324 316 317 320 322 322 322 322 322 322 322 322 321 322 322 321 320 320 318 315 311 307 304 301 299 297 296 295 292 291 292 294 294 293 291 287 285 285 284 281 278 277 277 277 278 279 280 281 280 278 278 274 269 271 274 270 278 291 291 291 303 308
167 177 189 220 284 317 335 349 0 11 23 26 24 10 347 333 329 327 327 327 326 325 325 324 322 321 321 321 320 318 316 313 310 308 306 303 301 300 299 298 295 292 291 290 289 288 286 283 282 282 281 278 276 276 277 277 276 275 275 276 275 273 273 272 269 269 268 265 271 279 281 289 301 306
165 172 182 210 46 61 62 58 58 57 53 46 32 7 348 339 335 335 335 334 333 331 329 326 322 321 321 321 319 318 316 312 310 310 309 306 303 303 302 300 297 294 292 290 287 285 283 281 280 279 278 277 276 274 273 274 274 272 270 269 270 272 272 270 269 268 265 264 267 270 274 282 292 299
139 133 123 109 101 97 85 68 55 44 29 14 1 352 347 345 343 341 340 336 334 331 329 325 322 321 321 319 318 317 316 313 312 313 310 305 303 303 302 298 294 293 292 290 287 286 283 281 280 277 276 276 275 275 275 274 273 272 268 264 265 267 267 267 268 269 268 268 269 269 269 274 282 290
126 128 127 122 113 97 66 39 24 17 12 6 360 354 350 347 343 340 336 333 331 330 328 325 323 322 320 319 318 317 314 313 313 312 309 304 301 301 299 294 291 291 291 289 289 288 285 283 281 278 275 274 275 277 279 278 275 274 271 268 265 264 264 266 267 270 273 273 271 270 269 271 277 282
135 134 127 114 91 52 30 23 20 17 11 3 358 354 350 347 345 341 337 334 333 332 329 326 324 322 321 319 317 315 312 310 311 310 305 301 300 299 295 289 286 287 286 285 287 289 289 288 286 283 279 277 275 275 275 275 275 275 274 273 270 266 266 267 268 271 274 270 267 268 267 267 272 276
137 128 108 81 60 44 36 32 28 19 8 359 355 353 352 351 350 346 344 341 338 335 332 328 325 324 322 318 316 313 309 307 307 306 303 299 297 293 289 285 283 282 281 280 282 285 288 289 288 285 283 280 277 275 270 266 265 268 270 270 268 267 270 272 271 272 272 267 263 263 263 265 269 270
121 104 88 75 62 50 42 36 26 14 5 1 358 356 357 358 356 351 348 345 341 338 336 333 330 326 322 318 315 311 307 305 304 303 301 298 293 288 285 282 281 280 279 278 279 281 284 285 284 283 282 280 279 278 274 265 259 260 263 264 263 265 269 272 273 271 269 264 259 256 255 260 265 262
104 88 79 74 63 47 39 32 20 10 6 5 5 3 0 357 354 351 347 344 341 340 338 334 329 325 320 316 312 309 306 304 301 299 298 295 292 288 285 282 280 280 279 277 278 280 280 279 277 276 278 279 277 277 279 274 264 259 260 261 263 265 268 272 274 271 266 262 257 251 249 255 262 261
99 88 78 72 60 45 35 23 13 10 11 12 10 4 357 351 348 347 345 342 339 337 334 330 324 321 317 314 310 308 305 302 298 296 294 293 291 288 285 283 282 281 279 278 279 279 276 273 271 267 267 272 274 270 278 284 281 272 264 262 264 267 271 273 272 268 266 263 257 251 249 251 256 259
99 93 82 70 56 40 26 17 14 17 18 12 4 357 352 348 346 344 342 340 336 334 331 327 323 319 315 311 307 303 301 299 296 294 293 292 289 286 284 283 282 281 280 279 279 277 273 269 265 260 257 259 264 269 280 287 283 277 269 263 263 269 275 276 272 270 270 267 257 251 247 245 245 243
97 92 79 63 47 30 19 19 23 22 15 6 359 354 350 347 344 342 340 337 335 332 329 324 320 316 311 308 304 301 298 297 295 294 293 291 288 286 284 282 281 281 281 279 278 276 272 265 261 257 254 252 254 263 270 274 276 277 276 271 271 277 282 282 278 275 274 265 249 237 228 223 220 213
100 92 72 51 36 27 25 30 30 20 8 0 356 352 348 344 342 340 337 334 331 328 325 320 316 312 309 306 304 302 300 298 296 294 293 291 289 287 285 283 282 282 281 278 277 275 269 264 263 262 259 259 263 268 270 271 272 275 275 274 275 276 278 278 277 275 272 261 238 213 192 183 176 171
112 96 70 49 39 37 41 40 27 12 3 357 352 349 346 343 340 337 333 331 328 324 321 317 313 310 307 307 307 306 302 300 299 297 296 295 292 290 288 285 282 280 278 276 274 273 272 273 275 274 271 270 270 269 269 266 263 266 271 275 277 275 272 271 269 266 263 251 218 186 170 167 164 159
127 102 78 63 59 60 52 36 17 4 358 354 349 347 346 342 339 335 332 329 326 322 319 316 313 311 310 312 313 311 306 303 302 301 300 298 295 292 291 287 281 277 275 272 273 276 280 282 283 280 276 270 263 257 254 251 251 258 267 273 276 274 268 264 262 259 258 248 220 188 167 157 154 154
134 110 95 88 83 70 45 22 9 0 355 352 349 348 345 340 336 334 331 327 324 322 320 318 317 315 316 317 317 314 310 306 305 304 303 300 297 294 292 288 285 282 278 276 278 282 284 284 282 277 270 262 254 247 244 248 252 256 262 267 268 263 256 256 255 246 233 227 222 212 197 181 163 163
138 122 111 102 87 61 28 10 3 358 354 351 349 346 343 338 335 333 331 327 324 324 325 324 322 320 320 321 320 317 315 312 310 309 306 305 303 299 295 293 291 289 286 283 283 285 286 286 283 274 264 255 249 242 238 242 248 252 253 251 241 222 212 204 180 163 165 176 194 209 210 198 175 110
147 134 117 107 84 39 11 2 360 357 354 350 347 344 341 337 335 334 333 331 329 330 331 331 328 326 325 324 322 319 317 317 316 314 311 310 308 305 302 299 296 294 294 292 288 287 289 290 285 272 261 256 252 246 239 239 243 245 238 218 192 177 165 150 141 136 132 138 155 181 204 203 193 40